Weather in Paporotka

Russia / Tula Oblast     53°37′55″N   38°21′15″E
temp.,
°C
wind,
m/s
gust,
m/s
humid.,
%
clouds,
%
prec.,
mm/h
press.,
hPa
HPBL,
m
11 may, tue
tue1100:00+8ne6158294 0.0 1024431
03:00+7nne615867 0.0 1023360
06:00+7nne7158989 0.0 1023390
09:00+12ne8137953 0.0 1023526
12:00+17ene8107056 0.0 10221075
15:00+16ene687893 0.6 1022902
18:00+13se5108479 1.1 1024909
21:00+10ese36902 1.1 1025119
12 may, wed
wed1200:00+7ese35900 0.0 102698
03:00+6ese22900 0.0 102618
06:00+7ene25885 0.0 1027129
09:00+12ene4669100 0.0 1025557
12:00+10ne4587100 2.0 1023537
15:00+9n2396100 5.4 1021146
18:00+11se34828 0.3 1020506
21:00+8e479491 0.3 1020136
13 may, thu
thu1300:00+8e5129670 0.0 1020261
03:00+9ese41195100 0.1 1020317
06:00+9e4895100 0.3 1019218
09:00+13e348457 0.3 1018440
12:00+14e448372 0.1 1016536
15:00+17se466514 0.7 10161282
18:00+16sse47815 2.3 1016560
21:00+12s35913 3.5 101678
14 may, fri
fri1400:00+11s3392100 0.0 101740
03:00+11se2291100 0.0 101718
06:00+12ese3691100 0.0 1017127
09:00+16ese5118681 0.0 1016397
12:00+21se7106995 0.0 10151148
15:00+23se6106597 0.0 10141459
18:00+21sse71270100 2.4 1012453
21:00+17s111690100 13.5 1013753
15 may, sat
sat1500:00+15ese368988 8.1 1011108
03:00+15sse1196100 10.6 101131
06:00+15ne479698 5.7 1010205
09:00+16sse51395100 10.6 1009457
12:00+21s7979100 0.6 10101074
15:00+21ssw796844 2.2 10101253
18:00+19sw5878100 1.4 1010656
21:00+15sw35900 1.6 101170